Concordia, KS

9:02 AM CST on November 18, 2019 (GMT -0600)
Blosser Municipal

Weather History for KCNK - September, 2019

Change the Weather History Date:

Friday, September 13, 2019

  Actual Average Record
Temperature  
Mean Temperature 69 °F 69 °F  
Max Temperature 86 °F 81 °F 103 °F (1911)
Min Temperature 52 °F 57 °F 33 °F (1890)
Degree Days  
Heating Degree Days 0 2  
Month to date heating degree days 0 12  
Since 1 July heating degree days 0 15  
Cooling Degree Days 4 6  
Month to date cooling degree days 161 98  
Year to date cooling degree days 1438 1264  
Growing Degree Days 20 (Base 50)    
Moisture  
Dew Point 52 °F    
Average Humidity 54    
Maximum Humidity 78    
Minimum Humidity 29    
Precipitation  
Precipitation 0.00 in 0.10 in 1.66 in (2002)
Month to date precipitation 0.02 1.26  
Year to date precipitation 28.86 22.36  
Snow  
Snow 0.00 in 0.00 in T in (1928)
Month to date snowfall 0.0 0.0  
Year to date snowfall 32.3 13.7  
Since 1 July snowfall 0.0 0.0  
Snow Depth 0.00 in    
Sea Level Pressure  
Sea Level Pressure 30.16 in    
Wind  
Wind Speed 8 mph (WSW)    
Max Wind Speed 17 mph    
Max Gust Speed 24 mph    
Visibility 10 miles    
Events      
T = Trace of Precipitation, MM = Missing Value Source: NWS Daily Summary

Daily Weather History Graph

Daily Weather History Graph

Search for Another Location

Airport or City:

Astronomy

Sep. 13, 2019 Rise Set
Actual Time 7:09 AM CDT 7:42 PM CDT
Civil Twilight 6:42 AM CDT 8:09 PM CDT
Nautical Twilight 6:10 AM CDT 8:41 PM CDT
Astronomical Twilight 5:37 AM CDT 9:14 PM CDT
Moon 7:56 PM CDT (9/13) 6:28 AM CDT (9/13)
Length of Visible Light 13h 27m
Length of Day
12h 32m
Full, 100% of the Moon is Illuminated
Sep 13
Full
Sep 13
Full
Sep 21
Last Quarter
Sep 28
New
Oct 5
First Quarter

Hourly Weather History & Observations

Time (CDT) Temp. Dew Point Humidity Pressure Visibility Wind Dir Wind Speed Gust Speed Precip Events Conditions
12:55 AM 61.0 °F 53.1 °F 75% 30.13 in 10.0 mi WNW 5.8 mph - N/A   Clear
2:55 AM 60.1 °F 51.1 °F 72% 30.15 in 10.0 mi WNW 6.9 mph - N/A   Clear
3:55 AM 57.9 °F 50.0 °F 75% 30.16 in 10.0 mi WNW 6.9 mph - N/A   Clear
4:55 AM 57.0 °F 48.9 °F 74% 30.16 in 10.0 mi WNW 8.1 mph - N/A   Clear
5:55 AM 55.0 °F 48.9 °F 80% 30.20 in 10.0 mi WSW 4.6 mph - N/A   Clear
6:55 AM 55.9 °F 48.0 °F 75% 30.20 in 10.0 mi Calm Calm - N/A   Clear
7:55 AM 57.0 °F 50.0 °F 77% 30.21 in 10.0 mi West 5.8 mph - N/A   Clear
8:55 AM 63.0 °F 51.1 °F 65% 30.22 in 10.0 mi WNW 4.6 mph - N/A   Clear
10:55 AM 73.9 °F 51.1 °F 45% 30.22 in 10.0 mi West 8.1 mph - N/A   Clear
12:55 PM 81.0 °F 50.0 °F 34% 30.21 in 10.0 mi West 4.6 mph - N/A   Clear
1:55 PM 82.0 °F 50.0 °F 33% 30.18 in 10.0 mi West 6.9 mph - N/A   Clear
2:55 PM 84.0 °F 48.9 °F 29% 30.16 in 10.0 mi West 6.9 mph - N/A   Clear
3:55 PM 84.9 °F 51.1 °F 31% 30.13 in 10.0 mi WSW 6.9 mph - N/A   Clear
4:55 PM 84.9 °F 50.0 °F 30% 30.12 in 10.0 mi West 3.5 mph - N/A   Clear
5:55 PM 82.9 °F 51.1 °F 33% 30.11 in 10.0 mi South 9.2 mph - N/A   Clear
7:55 PM 70.0 °F 57.0 °F 63% 30.12 in 10.0 mi South 9.2 mph - N/A   Clear
8:55 PM 66.9 °F 55.9 °F 68% 30.14 in 10.0 mi South 8.1 mph - N/A   Clear
9:55 PM 70.0 °F 55.9 °F 61% 30.14 in 10.0 mi South 11.5 mph - N/A   Clear
10:55 PM 70.0 °F 55.0 °F 59% 30.14 in 10.0 mi South 11.5 mph - N/A   Clear
11:55 PM 70.0 °F 55.0 °F 59% 30.13 in 10.0 mi South 16.1 mph - N/A   Clear